Hourly Data Report for October 10, 2012

All times are specified in Local Standard Time (LST). Add 1 hour to adjust for Daylight Saving Time where and when it is observed.

IQALUIT CLIMATE
NUNAVUT

63°44'50.000" N
68°32'40.000" W
33.50 m
2402592
71321
XFB

Download Data

Hourly Data (October 2012)
Hourly Data Report for October 10, 2012
Temp Definition
°C
Dew Point Temp Definition
°C
Rel Hum Definition
%
Wind Dir Definition
10's deg

Wind Spd Definition
km/h
Visibility Definition
km
Stn Press Definition
kPa
Hmdx Definition


Wind Chill Definition


Weather Definition


TIME
00:00 -7.3 -8.5 91 33 7   101.48   -11 LegendNANA
01:00 -7.5 -9.0 89 34 6   101.47   -11 LegendNANA
02:00 -7.0 -8.8 87 36 6   101.48   -10 LegendNANA
03:00 -6.9 -9.1 84 4 4   101.47   -9 LegendNANA
04:00 -8.0 -9.9 86 5 6   101.46   -11 LegendNANA
05:00 -7.8 -9.7 86 1 4   101.45   -10 LegendNANA
06:00 -8.2 -9.8 88 1 4   101.43   -10 LegendNANA
07:00 -7.2 -8.6 90 4 4   101.42   -9 LegendNANA
08:00 -4.1 -6.5 83 12 2   101.40   -5 LegendNANA
09:00 -3.6 -6.5 80 14 9   101.38   -7 LegendNANA
10:00 -2.4 -5.7 78 13 9   101.37   -6 LegendNANA
11:00 -2.1 -4.8 82 16 15   101.28   -7 LegendNANA
12:00 -1.9 -4.7 81 16 13   101.21   -6 LegendNANA
13:00 -1.4 -4.2 81 16 17   101.16   -7 LegendNANA
14:00 -1.5 -4.5 80 16 13   101.10   -6 LegendNANA
15:00 -1.1 -4.3 79 16 17   101.00   -6 LegendNANA
16:00 -0.8 -4.2 78 14 15   100.94   -5 LegendNANA
17:00 -0.8 -4.3 77 13 15   100.87   -5 LegendNANA
18:00 -0.5 -5.0 72 12 22   100.81   -6 LegendNANA
19:00 -0.4 -4.8 72 13 20   100.75   -6 LegendNANA
20:00 -0.7 -4.7 74 12 13   100.68   -5 LegendNANA
21:00 -0.7 -4.8 74 12 19   100.58   -6 LegendNANA
22:00 -0.2 -5.1 69 11 20   100.47   -5 LegendNANA
23:00 0.2 -4.6 70 12 28   100.32     LegendNANA

Notes on Data Quality.

Legend

  • E = Estimated
  • M = Missing
  • NA = Not Available
  • ‡ = Partner data that is not subject to review by the National Climate Archives
Date modified: